Temperature
10 9 8 8 9 9 9 9 9 10 10 9 8 8 8 9 8 7 7 6 6 6 5 5 5 4 4 4 4 4 4 4 4 4 4 4 4 4 4 4 4 4 4 4
9 8 8 9 9 9 9 8 9 9 9 9 8 8 8 7 7 6 6 6 5 5 4 4 4 4 3 3 3 3 3 3 3 3 3 3 3 3 3 3 4 4 4 4
8 8 8 8 8 8 8 7 8 7 7 8 7 6 7 7 6 6 5 5 5 4 4 3 3 3 3 2 2 3 3 3 3 3 3 3 3 3 3 3 3 3 3 3
8 8 8 7 7 7 7 7 7 6 5 5 7 5 6 6 5 5 4 4 4 3 3 3 2 2 2 2 2 2 2 2 2 2 2 2 2 2 2 2 2 2 2 2
7 7 6 6 6 6 6 6 5 5 5 4 6 5 5 6 5 4 4 4 3 3 2 2 2 2 1 1 1 1 1 1 1 1 1 1 1 1 2 2 2 2 2 2
6 6 6 6 6 6 5 5 5 4 4 3 5 5 5 4 4 3 3 3 2 2 2 1 1 1 1 0 0 1 1 1 1 1 1 1 1 1 1 1 1 1 1 1
6 6 5 5 4 5 4 4 4 4 3 4 5 5 3 3 3 3 2 2 1 1 1 0 0 -0 -0 -0 -0 -0 -0 0 0 0 0 0 0 0 0 0 0 0 0 1
5 5 5 4 4 3 4 4 3 3 4 4 4 4 3 3 2 2 1 1 0 0 0 -0 -0 -1 -1 -1 -1 -1 -1 -1 -1 -1 -0 -0 -0 -0 -0 -0 -0 -0 -0 0
4 4 4 4 4 4 4 3 4 3 3 2 3 4 3 2 1 0 0 -0 -1 -1 -1 -1 -1 -1 -1 -2 -2 -2 -1 -1 -1 -1 -1 -1 -1 -1 -1 -1 -1 -1 -1 -1
4 3 4 3 3 3 3 3 2 2 2 3 4 4 2 1 -0 -1 -1 -1 -1 -1 -2 -1 -2 -2 -2 -2 -2 -2 -2 -2 -2 -2 -2 -2 -2 -2 -2 -1 -1 -1 -1 -1
3 2 3 2 2 2 2 2 2 2 2 2 2 2 1 0 -0 -1 -1 -1 -1 -2 -2 -2 -2 -2 -2 -2 -2 -2 -2 -2 -2 -2 -2 -2 -2 -2 -2 -2 -2 -2 -2 -2
2 2 1 2 2 2 2 2 1 0 1 1 1 0 0 -0 -0 -1 -1 -2 -2 -2 -3 -3 -3 -3 -3 -3 -3 -3 -3 -3 -3 -3 -3 -3 -3 -3 -3 -3 -2 -2 -2 -2
1 1 0 2 1 1 1 1 0 -0 -1 -0 -0 0 -1 -1 -1 -1 -2 -2 -3 -3 -3 -3 -4 -4 -3 -3 -3 -3 -3 -3 -3 -3 -3 -3 -3 -3 -3 -3 -3 -3 -3 -3
1 -0 -0 1 1 0 -1 -1 -1 -1 -2 -1 -1 -1 -1 -2 -2 -3 -3 -3 -3 -4 -4 -4 -4 -4 -4 -4 -4 -4 -4 -4 -4 -4 -4 -4 -4 -4 -4 -4 -4 -3 -3 -3
0 -1 -1 -1 0 -0 -1 -1 -2 -2 -2 -2 -2 -2 -2 -3 -3 -3 -3 -4 -4 -4 -5 -5 -5 -5 -5 -5 -5 -5 -5 -5 -5 -4 -4 -4 -4 -4 -4 -4 -4 -4 -4 -4
-1 -1 -1 -1 -1 -1 -1 -2 -2 -2 -3 -3 -3 -3 -3 -3 -3 -4 -4 -4 -5 -5 -6 -6 -6 -6 -6 -6 -5 -5 -5 -5 -5 -5 -5 -5 -5 -5 -5 -5 -5 -5 -4 -4
-2 -2 -2 -1 -1 -2 -2 -3 -3 -3 -4 -4 -4 -4 -4 -4 -5 -5 -5 -6 -6 -6 -6 -7 -7 -7 -7 -6 -6 -6 -6 -6 -6 -5 -5 -5 -6 -6 -6 -5 -5 -5 -5 -5
-3 -3 -2 -2 -2 -2 -2 -3 -4 -4 -4 -5 -5 -5 -5 -5 -6 -6 -6 -6 -6 -7 -7 -7 -7 -7 -7 -7 -7 -6 -6 -6 -6 -6 -6 -6 -6 -6 -6 -6 -6 -6 -5 -5
-3 -3 -3 -2 -3 -2 -3 -4 -5 -5 -5 -6 -6 -6 -6 -6 -6 -6 -7 -7 -7 -8 -8 -8 -8 -8 -8 -7 -7 -7 -7 -7 -7 -7 -7 -7 -7 -7 -7 -7 -6 -6 -6 -6
-3 -4 -4 -3 -3 -3 -4 -6 -5 -5 -6 -6 -7 -7 -7 -7 -7 -7 -8 -8 -8 -8 -8 -8 -8 -8 -8 -8 -8 -8 -8 -8 -7 -7 -7 -7 -7 -7 -7 -7 -7 -7 -7 -6
-5 -5 -5 -4 -4 -4 -6 -6 -6 -5 -6 -7 -7 -8 -8 -8 -9 -9 -9 -9 -9 -9 -9 -9 -9 -9 -9 -9 -9 -9 -8 -8 -8 -8 -8 -8 -8 -8 -8 -8 -8 -7 -7 -7
-5 -5 -5 -5 -5 -5 -8 -7 -7 -8 -8 -8 -8 -8 -9 -9 -9 -10 -10 -10 -10 -9 -9 -9 -9 -9 -9 -9 -9 -9 -9 -9 -9 -8 -8 -8 -8 -8 -8 -8 -8 -8 -8 -8
-6 -6 -6 -6 -6 -7 -7 -8 -8 -8 -9 -9 -9 -9 -9 -10 -10 -10 -10 -10 -10 -10 -10 -10 -10 -10 -9 -10 -10 -10 -9 -9 -9 -9 -9 -9 -8 -8 -8 -8 -8 -8 -8 -8
-7 -7 -7 -7 -7 -7 -7 -8 -8 -9 -9 -9 -9 -10 -10 -10 -10 -11 -11 -11 -11 -11 -11 -10 -10 -10 -10 -10 -10 -10 -10 -10 -9 -9 -9 -9 -9 -9 -9 -9 -9 -9 -9 -9
-8 -8 -8 -8 -8 -8 -8 -8 -9 -9 -10 -10 -10 -10 -10 -11 -11 -11 -11 -11 -11 -11 -11 -11 -11 -11 -11 -11 -10 -10 -10 -10 -10 -10 -10 -9 -9 -9 -9 -9 -9 -9 -9 -9
-9 -9 -10 -9 -9 -9 -9 -9 -10 -10 -10 -10 -11 -11 -11 -11 -11 -12 -12 -12 -12 -12 -12 -12 -11 -11 -11 -11 -11 -11 -11 -10 -10 -10 -10 -10 -10 -10 -10 -10 -9 -9 -10 -10
Wind_Speed
4 2 3 4 5 6 6 7 9 6 2 3 9 9 7 4 3 3 2 2 2 2 2 3 3 4 3 3 3 3 3 2 2 1 1 1 1 0 0 0 1 1 1 1
3 4 4 4 4 6 7 9 10 6 2 4 8 10 6 4 4 3 3 2 2 1 1 2 3 3 3 3 3 3 3 2 2 2 1 1 1 1 1 1 0 0 1 1
4 1 2 4 4 5 8 7 7 7 7 7 7 8 6 3 3 2 2 2 1 1 1 1 1 1 2 2 2 2 2 2 2 2 1 0 0 1 1 1 1 1 1 1
3 2 3 4 4 4 6 3 6 7 7 6 4 7 6 4 4 2 1 1 1 0 1 1 1 1 1 1 1 2 2 2 2 2 2 2 2 2 2 2 2 2 1 2
2 1 3 4 4 3 5 5 6 7 7 8 7 6 6 4 4 3 1 1 0 1 1 0 0 1 1 1 1 1 1 2 2 2 3 3 2 2 1 2 2 2 2 2
4 1 1 2 3 3 4 5 6 5 4 7 9 8 5 2 2 2 1 1 1 1 1 1 1 1 1 0 1 1 1 1 2 2 2 3 3 2 2 2 2 2 2 1
4 3 2 1 3 2 2 2 2 3 4 6 3 4 4 1 3 3 2 2 3 2 2 1 1 1 1 1 1 1 1 1 1 2 2 3 3 3 3 3 3 3 2 2
4 3 3 1 1 2 4 3 3 4 5 4 2 5 2 4 5 6 5 4 4 4 3 2 1 1 1 1 1 2 2 2 2 2 3 3 3 2 2 3 3 3 3 3
4 4 1 1 1 1 2 2 1 3 5 5 5 2 2 5 5 5 5 5 5 5 4 4 3 1 1 1 1 2 2 2 3 3 3 3 2 2 2 3 3 3 3 3
3 6 2 1 0 2 2 2 0 2 3 5 5 3 1 1 2 3 4 5 5 5 5 5 4 3 1 1 1 2 2 3 3 3 3 3 2 2 2 3 3 4 4 4
3 4 3 2 4 4 2 2 2 3 4 3 4 2 2 3 2 2 3 4 4 4 5 5 4 3 2 2 1 2 2 3 3 3 3 3 3 2 2 3 4 4 4 4
2 3 5 4 0 1 2 2 3 2 4 3 4 3 2 4 4 4 4 5 4 4 5 4 4 4 3 2 2 2 2 3 3 3 3 3 3 3 3 3 3 3 4 4
1 1 4 3 0 1 1 1 1 2 2 4 4 4 2 4 5 5 4 4 4 5 5 5 4 4 3 3 3 3 3 3 4 4 4 4 3 3 4 4 3 3 4 4
1 3 5 6 4 1 3 3 3 3 4 6 7 6 5 6 6 6 5 4 4 4 5 6 5 5 4 4 3 3 4 3 4 4 4 4 4 4 4 4 4 4 4 4
1 4 6 9 9 6 6 6 4 7 7 7 7 6 7 6 6 6 6 5 5 6 7 7 7 7 6 5 4 4 4 4 4 4 4 5 4 4 4 4 4 4 4 5
2 4 4 7 7 5 7 6 5 6 6 7 8 8 6 6 5 6 6 5 6 7 7 7 8 8 8 7 6 5 5 5 4 4 5 4 4 4 4 4 4 4 4 4
2 2 3 5 3 4 5 4 4 3 2 3 6 6 6 7 7 6 7 6 7 8 8 8 8 8 8 7 7 6 6 5 5 4 4 4 4 4 4 4 4 4 4 4
3 3 3 4 4 5 2 2 1 1 2 2 3 5 6 7 7 5 5 6 7 8 9 8 8 8 8 7 7 6 5 5 5 5 4 4 4 4 4 4 4 4 4 4
2 3 3 3 4 6 1 2 2 2 3 3 4 7 8 7 6 3 5 6 7 8 8 8 7 7 7 7 6 6 5 5 5 5 5 5 4 4 4 4 4 4 4 4
1 1 2 3 3 4 2 4 5 1 3 5 6 7 8 8 5 5 8 9 9 9 8 8 7 7 7 7 6 5 6 5 6 6 6 5 4 4 4 4 4 3 3 4
1 1 3 4 4 3 3 5 3 0 4 6 6 6 7 5 4 6 9 9 9 9 9 8 7 7 7 7 6 5 6 6 6 6 6 5 4 4 4 3 3 3 3 3
2 2 2 2 3 4 4 3 1 3 5 6 7 6 6 6 6 7 8 9 9 9 9 8 7 7 7 6 6 6 7 7 6 6 5 5 4 4 3 2 2 2 2 3
1 1 2 2 3 1 2 0 2 4 5 6 6 7 6 6 7 8 7 8 8 9 9 8 7 7 8 7 6 6 7 7 6 5 5 5 4 4 3 2 2 2 2 2
1 1 1 2 3 2 1 2 5 6 5 6 6 6 5 5 6 7 7 7 8 8 8 8 7 8 8 8 8 7 7 7 6 6 5 5 4 4 3 3 2 2 2 2
2 1 2 3 4 5 3 4 6 7 7 6 6 6 5 4 6 6 7 7 8 8 8 8 7 7 8 8 8 8 8 7 6 6 5 5 4 4 3 3 2 2 2 2
1 1 1 3 3 3 6 6 7 7 7 6 6 6 6 5 5 6 7 7 7 8 8 8 8 8 8 8 8 8 8 7 6 6 6 5 4 4 4 4 4 5 5 6
Wind_Direction
192 212 228 238 235 266 289 288 283 281 283 244 247 255 250 222 212 217 211 211 213 209 149 126 119 116 122 134 137 141 137 134 131 137 139 169 194 190 268 300 215 261 287 301
216 226 252 281 287 278 274 277 278 285 292 275 268 267 259 212 217 211 199 204 224 193 117 117 123 131 143 153 153 151 153 155 153 165 191 207 221 234 268 281 56 311 321 310
234 260 297 272 282 281 264 260 278 293 306 269 270 271 227 198 194 185 178 191 234 197 164 129 116 146 151 163 165 177 170 173 171 161 161 179 23 340 314 291 274 298 290 284
267 264 286 277 274 279 272 308 294 294 294 273 239 276 242 180 173 190 226 207 231 317 135 132 141 186 184 182 173 177 182 183 185 179 180 188 218 235 264 260 264 285 259 253
265 273 279 268 273 263 275 314 287 274 268 275 246 247 263 168 198 206 207 178 143 6 22 82 170 216 210 183 177 188 199 202 203 203 198 199 228 247 250 248 257 269 271 237
256 305 315 306 300 263 291 294 270 249 246 255 230 219 263 205 194 148 61 22 15 2 355 332 21 39 356 51 124 200 215 233 218 223 218 214 227 237 233 238 240 249 254 260
242 212 192 296 302 262 282 305 299 260 228 244 203 212 240 123 90 107 88 28 14 18 8 355 8 14 355 1 353 296 249 268 250 241 233 235 231 233 229 231 236 241 250 260
297 261 165 150 288 267 256 233 229 253 262 289 239 219 191 98 83 68 60 38 19 19 8 359 356 16 348 329 327 317 286 286 277 261 253 250 249 243 236 236 242 247 251 253
309 291 43 57 342 302 272 240 287 281 281 271 248 209 134 75 56 45 38 30 17 11 7 360 356 5 345 310 301 304 305 298 285 280 276 263 258 260 252 247 245 252 252 259
310 292 262 169 224 257 284 310 201 232 273 273 263 234 256 47 27 17 19 14 5 4 359 352 350 345 341 306 304 318 316 308 297 292 288 286 276 261 259 257 255 251 250 257
306 275 269 216 211 214 199 210 234 257 256 263 279 278 57 81 82 37 17 14 5 359 350 344 343 339 337 333 319 317 317 319 317 309 307 298 288 277 259 256 256 257 258 257
317 286 272 258 207 63 168 194 180 218 268 258 274 261 74 75 65 49 21 7 2 2 358 350 343 338 337 329 318 311 316 316 313 313 308 299 294 287 276 273 269 267 265 260
328 277 297 281 259 35 305 262 230 235 276 252 249 256 50 33 30 32 12 354 3 2 358 357 349 340 336 332 328 319 315 312 311 310 301 295 294 291 284 281 280 274 273 273
322 236 224 249 282 285 265 265 240 207 231 254 246 271 313 346 351 353 353 351 356 359 356 353 346 340 338 335 327 319 314 308 307 302 296 290 287 284 284 287 284 276 274 275
320 259 255 267 277 274 263 257 226 213 225 241 270 279 302 328 331 336 336 342 350 352 350 346 343 338 333 331 324 318 315 313 306 300 295 288 293 293 295 294 288 281 274 273
294 270 287 275 256 258 273 274 250 237 241 253 272 283 306 324 333 335 335 338 340 337 339 340 338 335 331 328 320 318 317 313 305 296 293 296 297 298 297 295 292 286 279 276
260 265 274 268 280 302 277 271 231 224 234 237 258 279 327 335 336 334 333 337 333 331 331 334 331 326 322 320 318 312 309 310 305 297 296 297 296 295 293 296 296 291 285 279
228 255 265 284 310 263 240 58 94 208 269 264 282 311 326 318 316 323 342 339 337 336 333 326 324 323 320 319 320 313 309 308 309 310 304 303 300 298 297 295 290 291 291 285
219 225 264 270 277 267 231 19 11 283 293 354 330 322 325 327 320 331 9 360 343 332 326 321 320 319 320 322 323 324 320 317 319 317 310 303 297 294 293 291 294 296 294 290
339 210 245 266 272 272 303 329 329 294 263 5 351 327 324 334 325 320 346 345 338 334 331 328 326 328 329 327 329 328 323 327 324 319 312 305 298 291 287 286 291 296 292 290
315 253 242 255 255 265 347 329 350 344 292 332 332 324 321 317 295 307 325 330 332 331 330 331 333 335 333 332 334 330 328 325 321 320 319 317 309 298 287 283 290 296 296 301
207 241 244 253 248 274 1 29 36 286 323 330 326 325 322 316 314 322 327 331 336 336 339 341 341 341 341 343 342 338 332 327 327 327 327 326 324 321 316 296 296 300 299 302
181 220 261 220 228 350 89 80 342 344 323 320 322 321 320 317 319 325 329 334 339 341 342 344 346 346 347 348 348 341 332 334 338 345 342 339 340 338 339 335 322 322 319 316
319 347 281 278 291 313 353 6 355 344 329 325 327 326 323 315 320 328 333 338 341 342 344 347 352 352 345 346 346 338 334 340 349 351 347 347 349 349 352 349 342 336 330 332
299 314 291 272 305 326 342 355 342 338 341 341 340 337 334 334 333 335 337 340 342 343 344 348 350 349 346 348 348 344 346 350 354 352 347 348 349 344 347 346 343 340 333 341
335 201 238 264 310 301 302 326 338 337 337 339 340 341 346 347 339 340 340 341 343 343 345 348 350 350 346 348 348 347 348 351 352 348 347 347 351 353 354 354 353 352 352 344
Height
1483 1486 1487 1485 1483 1482 1481 1481 1480 1476 1475 1477 1476 1475 1473 1474 1475 1475 1476 1478 1479 1480 1481 1482 1483 1484 1485 1486 1487 1487 1488 1489 1490 1490 1491 1491 1492 1493 1494 1495 1496 1497 1497 1498
1483 1486 1483 1482 1482 1482 1482 1483 1480 1476 1475 1476 1475 1472 1470 1471 1472 1473 1474 1476 1477 1478 1479 1479 1480 1481 1482 1483 1483 1484 1485 1486 1487 1487 1488 1489 1489 1490 1491 1492 1493 1494 1494 1495
1483 1484 1482 1482 1483 1483 1481 1483 1481 1480 1478 1475 1476 1472 1468 1467 1469 1471 1472 1473 1475 1476 1476 1477 1477 1478 1479 1479 1480 1481 1482 1483 1483 1484 1485 1485 1486 1486 1488 1488 1489 1490 1491 1491
1482 1482 1482 1482 1483 1484 1482 1481 1481 1482 1485 1481 1477 1479 1465 1465 1468 1469 1471 1471 1472 1474 1474 1474 1475 1475 1476 1477 1477 1478 1479 1480 1480 1481 1481 1481 1481 1482 1483 1484 1484 1485 1487 1488
1483 1482 1483 1483 1483 1484 1483 1482 1482 1483 1484 1484 1476 1480 1468 1464 1468 1469 1469 1470 1471 1472 1472 1472 1472 1472 1473 1474 1474 1475 1476 1476 1477 1477 1478 1478 1478 1479 1479 1480 1481 1481 1482 1483
1483 1482 1483 1483 1483 1482 1483 1483 1482 1482 1484 1486 1473 1475 1468 1467 1466 1468 1469 1469 1470 1470 1470 1470 1470 1471 1471 1471 1472 1472 1472 1473 1474 1474 1474 1474 1475 1475 1475 1476 1477 1477 1478 1479
1482 1482 1483 1484 1484 1483 1484 1488 1488 1486 1484 1475 1466 1470 1472 1467 1466 1467 1468 1469 1469 1469 1469 1469 1468 1469 1469 1469 1469 1469 1469 1470 1470 1470 1471 1471 1471 1472 1472 1472 1473 1473 1474 1475
1483 1483 1483 1483 1485 1486 1484 1485 1490 1489 1479 1470 1467 1469 1471 1467 1467 1467 1468 1469 1469 1468 1468 1467 1467 1467 1467 1467 1467 1467 1466 1466 1466 1467 1467 1467 1468 1468 1468 1468 1469 1470 1470 1471
1489 1484 1483 1483 1483 1485 1484 1484 1484 1487 1482 1483 1471 1465 1467 1468 1469 1469 1469 1469 1469 1468 1467 1466 1466 1466 1465 1465 1464 1464 1464 1463 1463 1463 1463 1463 1463 1463 1464 1464 1465 1466 1466 1467
1490 1491 1484 1484 1484 1485 1485 1484 1488 1488 1486 1479 1465 1464 1470 1471 1471 1471 1470 1470 1469 1468 1467 1466 1465 1464 1464 1463 1462 1462 1461 1461 1461 1460 1460 1460 1460 1460 1460 1460 1461 1462 1462 1463
1490 1493 1487 1485 1485 1485 1487 1487 1487 1486 1482 1482 1477 1475 1473 1472 1472 1472 1471 1470 1469 1468 1466 1465 1463 1463 1462 1461 1460 1459 1459 1458 1457 1457 1457 1456 1456 1456 1456 1456 1457 1457 1458 1458
1492 1493 1490 1483 1482 1481 1482 1484 1488 1493 1488 1483 1483 1482 1473 1472 1471 1471 1471 1470 1469 1468 1466 1464 1462 1461 1460 1459 1458 1457 1456 1455 1454 1454 1453 1453 1452 1452 1452 1452 1452 1453 1453 1454
1493 1495 1495 1484 1486 1487 1486 1485 1487 1490 1490 1488 1486 1480 1472 1472 1471 1471 1471 1470 1468 1467 1465 1463 1461 1459 1458 1457 1455 1454 1453 1452 1451 1451 1450 1449 1449 1448 1448 1448 1448 1448 1448 1449
1492 1494 1495 1490 1484 1487 1488 1488 1488 1491 1493 1488 1480 1477 1475 1473 1473 1472 1470 1469 1467 1466 1464 1462 1460 1458 1456 1455 1453 1452 1450 1449 1448 1447 1446 1445 1445 1444 1444 1443 1443 1443 1444 1444
1493 1494 1490 1487 1483 1484 1484 1485 1487 1489 1487 1487 1479 1477 1476 1475 1474 1472 1470 1468 1466 1464 1462 1460 1458 1456 1454 1452 1450 1449 1447 1446 1445 1444 1443 1442 1441 1440 1440 1439 1439 1439 1439 1439
1493 1494 1490 1487 1481 1482 1482 1481 1482 1484 1484 1483 1480 1479 1475 1474 1473 1471 1469 1467 1465 1463 1461 1458 1456 1453 1451 1449 1447 1445 1444 1442 1441 1440 1439 1438 1437 1436 1436 1435 1435 1435 1435 1435
1494 1495 1492 1486 1480 1481 1482 1481 1482 1483 1482 1482 1482 1480 1475 1474 1472 1471 1468 1466 1464 1462 1459 1456 1454 1451 1449 1446 1444 1442 1440 1439 1437 1436 1435 1434 1434 1433 1432 1432 1431 1431 1431 1430
1494 1494 1492 1487 1485 1486 1482 1480 1480 1481 1481 1480 1479 1477 1476 1474 1472 1469 1467 1465 1462 1460 1457 1454 1451 1448 1445 1443 1441 1439 1437 1435 1434 1432 1431 1431 1430 1429 1428 1428 1427 1427 1427 1426
1491 1493 1491 1488 1487 1481 1480 1482 1482 1483 1481 1480 1479 1477 1475 1472 1468 1466 1465 1464 1462 1459 1456 1452 1449 1446 1443 1440 1438 1436 1434 1432 1430 1429 1428 1427 1426 1425 1425 1424 1423 1423 1423 1422
1491 1492 1494 1489 1489 1487 1486 1484 1481 1482 1481 1480 1479 1477 1475 1472 1470 1467 1465 1462 1459 1456 1453 1450 1446 1443 1440 1437 1435 1433 1430 1428 1426 1425 1424 1424 1423 1422 1421 1421 1420 1420 1419 1419
1496 1495 1496 1493 1491 1487 1489 1485 1482 1486 1485 1482 1479 1477 1475 1473 1472 1468 1464 1461 1457 1454 1451 1447 1444 1440 1437 1435 1433 1430 1427 1425 1424 1422 1421 1420 1419 1419 1418 1417 1417 1416 1416 1415
1497 1497 1495 1493 1493 1493 1490 1486 1489 1488 1484 1481 1478 1476 1474 1471 1468 1465 1462 1459 1455 1452 1448 1445 1442 1438 1435 1433 1430 1427 1424 1423 1421 1419 1417 1417 1416 1416 1415 1415 1414 1413 1412 1412
1496 1497 1495 1495 1495 1491 1489 1488 1487 1485 1482 1479 1477 1474 1472 1469 1466 1463 1460 1457 1453 1450 1447 1443 1440 1436 1434 1431 1429 1425 1423 1421 1418 1416 1415 1414 1413 1413 1413 1412 1411 1410 1410 1409
1495 1495 1494 1493 1489 1488 1487 1486 1485 1483 1480 1478 1475 1473 1470 1467 1464 1461 1458 1455 1452 1449 1445 1442 1439 1435 1433 1430 1427 1425 1422 1419 1417 1415 1413 1412 1411 1411 1410 1410 1409 1409 1408 1407
1497 1495 1495 1493 1490 1487 1485 1485 1483 1481 1478 1476 1473 1471 1468 1466 1463 1460 1457 1454 1451 1448 1445 1442 1438 1435 1432 1429 1426 1424 1421 1419 1416 1414 1413 1412 1411 1410 1409 1408 1408 1407 1406 1406
1495 1496 1497 1493 1490 1490 1486 1484 1482 1479 1476 1474 1471 1469 1467 1465 1462 1459 1456 1453 1451 1447 1444 1441 1438 1434 1432 1429 1426 1424 1421 1419 1416 1414 1413 1411 1410 1409 1408 1406 1406 1405 1405 1404